Simultaneous Nadir Overpasses (SNOs) Predictions

Prediction of SNOs between METOP-B and TERRA Satellite Orbit:

Table of predicted SNOs for the next 14.0 days since TLE Epoch: 6/10/2023
Index Date (METOP-B) Time (METOP-B) Lat,Lon (METOP-B) SZA (METOP-B ) Date (TERRA) Time (TERRA) Lat,Lon (TERRA) SZA (TERRA ) Distance(km) Time Diff (sec)
1 06/10/2023 05:46:19 -80.84, -53.91 120.63 06/10/2023 05:46:46 -80.84, -53.92 120.62 0.35 27
2 06/10/2023 06:36:58 80.87, 113.96 59.44 06/10/2023 06:36:07 80.86, 114.04 59.43 1.42 51
3 06/12/2023 21:07:18 80.81,-104.68 59.11 06/12/2023 21:08:15 80.81,-104.60 59.14 1.64 57
4 06/12/2023 21:57:56 -80.87, 63.75 120.75 06/12/2023 21:57:36 -80.86, 63.62 120.77 2.41 20
5 06/15/2023 13:18:56 80.82, 12.54 58.98 06/15/2023 13:19:05 80.82, 12.72 59.00 3.17 9
6 06/15/2023 14:09:33 -80.90,-178.65 120.83 06/15/2023 14:08:25 -80.90,-178.67 120.85 0.59 68
7 06/18/2023 04:39:55 -80.79, -38.08 121.18 06/18/2023 04:40:34 -80.80, -37.93 121.15 2.75 39
8 06/18/2023 05:30:32 80.86, 130.41 58.98 06/18/2023 05:29:53 80.87, 130.54 58.99 2.49 39
9 06/20/2023 20:00:52 80.77, -88.75 58.71 06/20/2023 20:02:00 80.77, -88.60 58.76 2.84 68
10 06/20/2023 20:51:30 -80.84, 79.74 121.13 06/20/2023 20:51:21 -80.83, 79.77 121.13 0.46 9
11 06/23/2023 12:12:27 80.83, 29.34 58.85 06/23/2023 12:12:47 80.82, 29.22 58.84 2.24 20



Historial Predications of SNOs between METOP-B and TERRA
